Location: Aranbee
(34.0885°N, 118.2342°W)
Time: 06:36:52
(UTC+00:00)

Vanguard 1 - Pass Details

Date: 30 July 2021
Orbit: 652 x 3831 km, 34.3° (Epoch: 25 September)

Event Time Altitude Azimuth Distance (km) Brightness Sun altitude
Rises 04:04:16 0° 263° (W) 6,514 15.1 -13.3°
Reaches altitude 10° 04:14:33 10° 234° (SW) 6,298 14.4 -15.0°
Maximum altitude 04:18:50 11° 221° (SW) 6,452 14.3 -15.8°
Drops below altitude 10° 04:23:25 10° 209° (SSW) 6,732 14.2 -16.5°
Sets 04:36:50 0° 180° (S) 7,950 14.3 -18.7°
